[[{"header":{"parameterUnit":"m.s-1","parameterCategory":1,"la1":30.2991,"la2":30.254,"lo1":-89.0895,"lo2":-89.0444,"dy":0.0017,"dx":0.0017,"nx":28,"ny":28,"refTime":"2023-10-25T09:00:00:Z","depth":0,"parameterNumber":2,"parameterNumberName":"U-component_of_WINDS"},"data":[0,0,0,0,0,0,0,0,0,0,0,0,0,0,0,0,0,0,0,0,0,0,0,0,0,0,0,0,0,0,0,0,0,0,0,0,0,0,0,0,0,0,0,0,0,0,0,0,0,0,0,0,0,0,0,0,0,0,-6.09,-6.09,0,-6.0919,-6.0919,-6.0919,-6.079,-6.0786,-6.0783,-6.0779,-6.0796,-6.08,-6.0804,0,0,0,0,0,0,0,0,0,0,0,0,0,-6.075,-6.0753,-6.09,-6.09,-6.09,-6.0919,-6.0919,-6.0919,-6.0791,-6.0786,-6.0782,-6.0778,-6.0795,-6.0799,-6.0804,0,0,0,0,0,0,0,0,0,0,0,0,0,-6.0797,-6.0754,-6.09,-6.0838,-6.0833,-6.0919,-6.0919,-6.092,-6.0792,-6.0786,-6.0781,-6.0776,-6.0793,-6.0799,-6.0805,-6.0949,0,0,-6.0822,-6.0825,0,0,0,0,0,0,0,0,-6.0794,-6.0802,-6.0847,-6.0843,-6.0837,-6.0847,-6.0872,-6.0929,-6.0793,-6.0807,-6.0779,-6.0773,-6.0817,-6.0821,-6.0836,-6.095,-6.0951,-6.0823,-6.0826,-6.0829,-6.083,0,0,0,0,0,0,0,-6.0791,-6.0801,-6.0907,-6.0848,-6.0842,-6.0809,-6.081,-6.0883,-6.0842,-6.0806,-6.0796,-6.08,-6.0813,-6.0831,-6.0835,-6.0951,-6.0822,-6.0828,-6.0831,-6.0833,-6.1186,-6.1191,0,0,0,0,0,0,-6.0796,-6.0799,-6.0906,-6.0908,-6.0802,-6.0816,-6.0817,-6.0849,-6.0841,-6.0835,-6.0805,-6.0794,-6.0824,-6.0829,-6.0836,-6.1004,-6.0829,-6.0834,-6.0837,-6.118,-6.1187,-6.1194,0,0,0,0,0,0,-6.0794,-6.0807,-6.0906,-6.0851,-6.0861,-6.0825,-6.0862,-6.0852,-6.0869,-6.0841,-6.0833,-6.0831,-6.082,-6.0827,-6.0922,-6.1003,-6.0837,-6.0842,-6.1173,-6.1182,-6.119,-6.1343,0,0,0,0,0,0,-6.079,-6.0807,-6.0862,-6.0853,-6.0864,-6.0993,-6.0867,-6.0857,-6.088,-6.0866,-6.0863,-6.0857,-6.0816,-6.0915,-6.0928,-6.1008,-6.0846,-6.1165,-6.1177,-6.1188,-6.133,-6.1356,-6.1377,0,0,0,0,0,-6.0785,-6.0903,-6.0865,-6.0879,-6.0932,-6.0998,-6.1004,-6.0955,-6.0887,-6.0942,-6.0924,-6.0857,-6.0993,-6.0925,-6.094,-6.1022,-6.116,-6.1174,-6.1187,-6.132,-6.1351,-6.1377,0,0,0,0,0,0,-6.0919,-6.09,-6.0858,-6.0977,-6.0991,-6.0976,-6.1042,-6.099,-6.1022,-6.1007,-6.0945,-6.0945,-6.1051,-6.1046,-6.0971,-6.1162,-6.1064,-6.1081,-6.1161,-6.119,-6.1213,-6.121,-6.0851,0,0,0,0,0,-6.0964,-6.102,-6.0999,-6.1106,-6.1115,-6.1079,-6.1105,-6.1067,-6.1078,-6.1082,-6.1071,-6.1083,-6.1129,-6.1159,-6.12,-6.1331,-6.1327,-6.1395,-6.1418,-6.1438,-6.1452,-6.152,-6.155,-6.1237,-6.1237,-6.1237,0,0,-6.1054,-6.105,-6.1089,-6.1133,-6.1139,-6.1197,-6.1084,-6.115,-6.1193,-6.1092,-6.118,-6.1174,-6.1183,-6.1297,-6.1346,-6.1296,-6.1538,-6.1455,-6.147,-6.1474,-6.1537,-6.1567,-6.1593,-6.1246,-6.1245,-6.1243,0,0,-6.1248,-6.1252,-6.1341,-6.135,-6.1361,-6.1336,-6.1359,-6.1353,-6.1345,-6.1434,-6.136,-6.141,-6.1489,-6.1499,-6.1515,-6.1717,-6.1657,-6.1733,-6.1854,-6.1922,-6.1946,-6.1968,-6.2039,-6.2065,-6.1747,-6.1748,-6.1748,0,-6.1358,-6.1443,-6.1393,-6.1465,-6.1487,-6.1402,-6.1491,-6.1502,-6.1526,-6.1542,-6.1487,-6.1586,-6.1586,-6.1701,-6.1751,-6.1767,-6.1789,-6.173,-6.1947,-6.1968,-6.1988,-6.2054,-6.2081,-6.1757,-6.1756,-6.1755,-6.1754,0,-6.1578,-6.1639,-6.171,-6.1737,-6.1767,-6.1847,-6.1809,-6.1845,-6.1807,-6.1788,-6.188,-6.1879,-6.1917,-6.1942,-6.1904,-6.2052,-6.2021,-6.1958,-6.1857,-6.2027,-6.2089,-6.2114,-6.177,-6.1766,-6.1764,-6.1762,0,0,-6.1852,-6.1853,-6.188,-6.1891,-6.1899,-6.1945,-6.2023,-6.2062,-6.2094,-6.2115,-6.2177,-6.2249,-6.2191,-6.2209,-6.2172,-6.2232,-6.2391,-6.2161,-6.216,-6.2202,-6.2554,-6.2599,-6.2629,-6.2353,-6.2358,-6.2362,-6.2552,0,-6.204,-6.2172,-6.2131,-6.2264,-6.232,-6.2242,-6.231,-6.2322,-6.2308,-6.2353,-6.2337,-6.2388,-6.2309,-6.2319,-6.2376,-6.236,-6.246,-6.2346,-6.2409,-6.2412,-6.2405,-6.2662,-6.2709,-6.2889,-6.2576,-6.258,-6.2583,0,-6.2275,-6.2307,-6.2447,-6.2447,-6.2469,-6.253,-6.2563,-6.2608,-6.2621,-6.2607,-6.2629,-6.258,-6.2656,-6.256,-6.2663,-6.2586,-6.261,-6.2607,-6.2613,-6.2613,-6.2505,-6.2667,-6.2945,-6.2971,-6.2621,-6.2618,-6.2615,0,-6.2459,-6.2537,-6.263,-6.2643,-6.2646,-6.2691,-6.2694,-6.2702,-6.2729,-6.2759,-6.2776,-6.2814,-6.2835,-6.2865,-6.2828,-6.2761,-6.2937,-6.2837,-6.2926,-6.2927,-6.2962,-6.296,-6.3245,-6.2984,-6.2984,-6.2983,-6.2983,0,-6.267,-6.2758,-6.2713,-6.277,-6.2867,-6.282,-6.2916,-6.2911,-6.2919,-6.2974,-6.291,-6.2962,-6.2911,-6.2959,-6.2931,-6.302,-6.3031,-6.302,-6.3011,-6.3024,-6.3025,-6.3036,-6.3022,-6.299,-6.2989,-6.2987,-6.2986,0,-6.2889,-6.2863,-6.2959,-6.2956,-6.2958,-6.3029,-6.3026,-6.3078,-6.3062,-6.3132,-6.3146,-6.3119,-6.3172,-6.314,-6.3193,-6.3175,-6.3291,-6.3266,-6.3286,-6.3279,-6.3368,-6.336,-6.3668,-6.3705,-6.3423,-6.3426,-6.3428,0,-6.3024,-6.309,-6.3096,-6.3128,-6.3137,-6.319,-6.3218,-6.3176,-6.3207,-6.3229,-6.3279,-6.3328,-6.3364,-6.3453,-6.3438,-6.3479,-6.3453,-6.3559,-6.3458,-6.347,-6.3452,-6.3447,-6.3453,-6.3577,-6.3581,-6.3583,-6.3586,0,-6.3266,-6.3251,-6.3294,-6.3335,-6.3371,-6.34,-6.3423,-6.3454,-6.3412,-6.3451,-6.3506,-6.3534,-6.3591,-6.3639,-6.3675,-6.3677,-6.3625,-6.3618,-6.364,-6.3653,-6.3661,-6.3656,-6.3338,-6.361,-6.3608,-6.3606,-6.3605,-6.3604,-6.3445,-6.3501,-6.3514,-6.3565,-6.3579,-6.3604,-6.3653,-6.3645,-6.369,-6.3733,-6.3706,-6.3771,-6.3784,-6.3827,-6.3837,-6.3886,-6.3843,-6.3876,-6.3884,-6.3892,-6.3903,-6.3657,-6.3893,-6.3892,-6.3891,-6.3891,-6.389,0,-6.3682,-6.3688,-6.3736,-6.3772,-6.3813,-6.3763,-6.3788,-6.3824,-6.3883,-6.39,-6.3938,-6.4002,-6.405,-6.4041,-6.4084,-6.4125,-6.4102,-6.4138,-6.4132,-6.4134,-6.394,-6.3915,-6.4156,-6.4156,-6.4156,-6.4156,-6.4156,-6.4155,-6.381,-6.3901,-6.3888,-6.3986,-6.399,-6.4054,-6.4073,-6.4095,-6.4109,-6.4183,-6.4223,-6.4218,-6.4225,-6.4269,-6.4311,-6.4307,-6.4324,-6.4369,-6.4356,-6.4174,-6.4147,-6.4122,-6.4098,-6.4374,-6.4374,-6.4545,-6.4546,-6.4548]},{"header":{"parameterUnit":"m.s-1","parameterCategory":1,"la1":30.2991,"la2":30.254,"lo1":-89.0895,"lo2":-89.0444,"dy":0.0017,"dx":0.0017,"nx":28,"ny":28,"refTime":"2023-10-25T09:00:00:Z","depth":0,"parameterNumber":3,"parameterNumberName":"V-component_of_WINDS"},"data":[0,0,0,0,0,0,0,0,0,0,0,0,0,0,0,0,0,0,0,0,0,0,0,0,0,0,0,0,0,0,0,0,0,0,0,0,0,0,0,0,0,0,0,0,0,0,0,0,0,0,0,0,0,0,0,0,0,0,1.4296,1.4297,0,1.4356,1.4357,1.4358,1.4353,1.4352,1.4351,1.435,1.4411,1.4414,1.4416,0,0,0,0,0,0,0,0,0,0,0,0,0,1.4179,1.4181,1.4296,1.4297,1.4298,1.4356,1.4357,1.4358,1.4353,1.4352,1.4351,1.435,1.441,1.4413,1.4416,0,0,0,0,0,0,0,0,0,0,0,0,0,1.4233,1.4182,1.4296,1.4302,1.4304,1.4356,1.4357,1.4358,1.4353,1.4352,1.4351,1.4349,1.4409,1.4413,1.4417,1.4466,0,0,1.4428,1.4429,0,0,0,0,0,0,0,0,1.423,1.4238,1.4301,1.4302,1.4303,1.4346,1.4338,1.4394,1.4354,1.4334,1.435,1.4349,1.439,1.4396,1.441,1.4469,1.4472,1.4428,1.443,1.4432,1.4433,0,0,0,0,0,0,0,1.4227,1.4235,1.432,1.4302,1.4303,1.4303,1.4309,1.4349,1.4369,1.4336,1.4336,1.4343,1.4391,1.4406,1.4411,1.4473,1.4428,1.4431,1.4434,1.4435,1.4579,1.4581,0,0,0,0,0,0,1.4221,1.4232,1.4318,1.4322,1.4263,1.4306,1.4313,1.4334,1.4369,1.4373,1.4344,1.4343,1.4401,1.4407,1.4413,1.4476,1.4432,1.4435,1.4438,1.4578,1.458,1.4581,0,0,0,0,0,0,1.4219,1.4229,1.4316,1.4277,1.4288,1.4309,1.4333,1.4335,1.4351,1.4375,1.4379,1.4356,1.44,1.4408,1.4454,1.4478,1.4437,1.444,1.4576,1.4578,1.4581,1.46,0,0,0,0,0,0,1.4215,1.4228,1.4246,1.4277,1.429,1.4355,1.4334,1.4338,1.4357,1.4356,1.4387,1.4391,1.4399,1.4449,1.4458,1.4482,1.4443,1.4574,1.4577,1.458,1.4598,1.4603,1.4608,0,0,0,0,0,1.4211,1.4249,1.4247,1.4258,1.4313,1.4356,1.4363,1.4373,1.4359,1.4378,1.4395,1.439,1.4474,1.4453,1.4464,1.449,1.4572,1.4576,1.458,1.4595,1.4602,1.4608,0,0,0,0,0,0,1.4219,1.4253,1.4252,1.43,1.4326,1.4355,1.4379,1.4379,1.4408,1.4405,1.4416,1.4423,1.447,1.4484,1.446,1.4541,1.4521,1.4527,1.453,1.4537,1.4542,1.4537,1.4446,0,0,0,0,0,1.4227,1.4258,1.4286,1.4326,1.4339,1.4357,1.4376,1.4382,1.4408,1.4418,1.4438,1.4463,1.4496,1.4517,1.4548,1.46,1.4608,1.4623,1.4628,1.4632,1.4637,1.4669,1.4677,1.4593,1.4593,1.4593,0,0,1.4242,1.4264,1.4283,1.4328,1.4348,1.4382,1.4366,1.4401,1.4427,1.4423,1.4469,1.4484,1.4514,1.4564,1.4587,1.4577,1.4662,1.4637,1.464,1.4643,1.4673,1.4681,1.4688,1.4596,1.4596,1.4595,0,0,1.4287,1.4307,1.4344,1.4365,1.4397,1.4409,1.4418,1.4449,1.4459,1.4505,1.4504,1.4535,1.459,1.4612,1.463,1.4688,1.4686,1.4698,1.4725,1.4755,1.4762,1.4768,1.479,1.4798,1.4703,1.4703,1.4703,0,1.4302,1.4353,1.4363,1.4399,1.442,1.4421,1.4459,1.4479,1.4519,1.4533,1.4523,1.4594,1.4614,1.467,1.4685,1.4699,1.4711,1.4694,1.476,1.4766,1.4772,1.4793,1.4801,1.4704,1.4704,1.4704,1.4704,0,1.4371,1.4406,1.4432,1.4472,1.4496,1.4533,1.455,1.4573,1.4577,1.4591,1.4639,1.4663,1.4701,1.4715,1.4718,1.4773,1.4766,1.4758,1.4738,1.4781,1.4801,1.481,1.4706,1.4706,1.4706,1.4705,0,0,1.4421,1.4468,1.4478,1.4497,1.4534,1.4561,1.46,1.4637,1.4658,1.4686,1.4719,1.4768,1.4761,1.4782,1.4788,1.4815,1.4862,1.4804,1.4805,1.4815,1.4926,1.4933,1.4942,1.4861,1.4863,1.4864,1.4924,0,1.4471,1.4539,1.4551,1.4611,1.4645,1.4647,1.4681,1.4708,1.4723,1.4754,1.477,1.4805,1.4793,1.4806,1.4833,1.4851,1.4885,1.4847,1.4893,1.4895,1.4886,1.4953,1.4959,1.5015,1.4932,1.4934,1.4935,0,1.4538,1.457,1.4633,1.4668,1.4683,1.4713,1.475,1.478,1.4811,1.482,1.4845,1.485,1.4891,1.487,1.4928,1.4902,1.4922,1.4934,1.4937,1.4942,1.4918,1.4961,1.5033,1.5042,1.4947,1.4946,1.4945,0,1.457,1.4629,1.4675,1.4692,1.4733,1.4754,1.4773,1.4802,1.4825,1.4858,1.4873,1.491,1.493,1.4959,1.4974,1.4956,1.5032,1.5011,1.5041,1.5041,1.5057,1.5056,1.5134,1.5069,1.5068,1.5068,1.5068,0,1.4625,1.4665,1.4691,1.4719,1.4764,1.4779,1.4823,1.4841,1.4868,1.4901,1.4905,1.4936,1.4953,1.4987,1.4999,1.5047,1.5055,1.5065,1.5068,1.5065,1.5064,1.5078,1.5075,1.5071,1.507,1.507,1.5069,0,1.4669,1.4687,1.4739,1.4775,1.4785,1.4816,1.4847,1.4876,1.4892,1.4934,1.4945,1.497,1.501,1.5028,1.5077,1.5086,1.5141,1.514,1.513,1.5132,1.5162,1.5159,1.5253,1.5267,1.5191,1.5191,1.5192,0,1.4703,1.4733,1.4774,1.4796,1.4816,1.4852,1.4876,1.4892,1.4917,1.4957,1.4981,1.5022,1.5056,1.5121,1.5144,1.5182,1.5183,1.5214,1.5189,1.5187,1.5186,1.5184,1.5188,1.5218,1.5219,1.522,1.522,0,1.4762,1.4771,1.4806,1.4845,1.4874,1.4905,1.4936,1.4954,1.4975,1.5004,1.5046,1.5072,1.5124,1.5165,1.5206,1.5225,1.5227,1.5228,1.5237,1.5235,1.5229,1.5234,1.5144,1.5225,1.5225,1.5225,1.5224,1.5224,1.4803,1.4832,1.4865,1.4904,1.493,1.4959,1.4989,1.501,1.5045,1.5089,1.5097,1.5142,1.5175,1.5231,1.5252,1.5288,1.5281,1.5294,1.5298,1.5301,1.5304,1.5223,1.5296,1.5295,1.5295,1.5295,1.5295,0,1.4864,1.4887,1.4923,1.4967,1.4998,1.4998,1.5033,1.5059,1.51,1.5131,1.5165,1.5215,1.5255,1.5283,1.5324,1.5349,1.5351,1.5359,1.5358,1.5363,1.5307,1.5295,1.5357,1.5357,1.5357,1.5357,1.5357,1.5357,1.49,1.4949,1.4962,1.5025,1.5047,1.5092,1.5112,1.514,1.5165,1.5221,1.5256,1.5274,1.5304,1.5349,1.5387,1.5394,1.541,1.5419,1.5426,1.5373,1.5366,1.536,1.535,1.5422,1.5422,1.5479,1.5479,1.548]}]]